Home > Weather > Aix-en-Provence > Past weeks

Flag for France Past Weather in Aix-en-Provence, Provence-Alpes-Côte d'Azur, France — Yesterday and Last 2 Weeks

Now
68 °F

Clear.


Feels Like: 68 °F
Forecast: 61 / 88 °F
Wind: No wind

Location: Marseille / Marignane

Current Time: Jun 29, 2016 at 7:30:57 AM

Latest Report: Jun 29, 2016 at 7:00 AM


Visibility: 10 mi

Pressure: 29.98 "Hg

Humidity: 69%

Dew Point: 57 °F

Location of Aix-en-ProvenceLocation

Past Weather in Aix-en-Provence — Graph

°F

Aix-en-Provence Temperature Yesterday

Maximum temperature yesterday: 88 °F (at 3:30 PM)
Minimum temperature yesterday: 64 °F (at 5:30 AM)
Average temperature yesterday: 76 °F

High & Low Weather Summary for the Past Weeks

 TemperatureHumidityPressure
High91 °F (Jun 25, 4:30 PM)88% (Jun 16, 1:30 PM)30.18 "Hg (Jun 16, 1:30 PM)
Low59 °F (Jun 17, 5:30 AM)25% (Jun 23, 12:30 PM)29.56 "Hg (Jun 15, 8:00 PM)
Average73 °F54%29.97 "Hg
* Reported Jun 14 6:00 AM — Jun 29 6:30 AM, Aix-en-Provence, Weather by CustomWeather, © 2016

Note: Actual official high and low records may vary slightly from our data, if they occured in-between our weather recording intervals... More about our weather records

Advertising

Aix-en-Provence Weather History for the Previous 24 Hours

Scroll right to see more
 ConditionsComfort  
Time TempWeatherWind HumidityBarometerVisibility
6:30 AM
Wed, Jun 29
68 °FClear.2 mph69%29.98 "Hg10 mi
6:00 AM68 °FClear.2 mph78%29.98 "Hg10 mi
5:30 AM64 °FClear.2 mph73%29.98 "Hg10 mi
5:00 AM66 °FClear.3 mph73%29.98 "Hg10 mi
4:30 AM64 °FClear.7 mph78%29.98 "Hg10 mi
4:00 AM66 °FClear.6 mph83%29.98 "Hg10 mi
3:30 AM64 °FClear.7 mph78%29.98 "Hg10 mi
3:00 AM64 °FClear.7 mph83%30.01 "Hg10 mi
2:30 AM66 °FClear.6 mph78%30.01 "Hg10 mi
2:00 AM68 °FClear.5 mph73%30.01 "Hg10 mi
1:30 AM68 °FClear.3 mph73%30.01 "Hg10 mi
1:00 AM68 °FClear.3 mph73%30.01 "Hg10 mi
12:30 AM68 °FClear.3 mph73%30.01 "Hg10 mi
12:00 AM70 °FClear.No wind73%30.01 "Hg10 mi
11:30 PM
Tue, Jun 28
70 °FClear.No wind78%30.01 "Hg10 mi
11:00 PM70 °FClear.1 mph73%30.01 "Hg10 mi
10:00 PM72 °FSunny.7 mph69%30.01 "Hg10 mi
9:30 PM73 °FSunny.12 mph61%30.01 "Hg10 mi
9:00 PM75 °FSunny.16 mph54%30.01 "Hg10 mi
8:30 PM77 °FSunny.12 mph54%29.98 "Hg10 mi
8:00 PM79 °FSunny.8 mph45%29.98 "Hg10 mi
7:30 PM81 °FSunny.9 mph42%29.98 "Hg10 mi
7:00 PM81 °FSunny.10 mph42%29.98 "Hg10 mi
6:30 PM82 °FSunny.14 mph40%29.98 "Hg10 mi
6:00 PM86 °FSunny.13 mph35%29.98 "Hg10 mi
5:30 PM86 °FPassing clouds.12 mph35%29.98 "HgN/A
5:00 PM86 °FSunny.13 mph40%29.98 "Hg10 mi
4:30 PM86 °FSunny.14 mph38%29.98 "Hg10 mi
4:00 PM88 °FSunny.7 mph31%29.98 "Hg10 mi
3:30 PM88 °FSunny.7 mph31%30.01 "Hg10 mi
3:00 PM86 °FSunny.7 mph33%30.01 "Hg10 mi
2:30 PM86 °FSunny.7 mph35%30.01 "Hg10 mi
2:00 PM84 °FSunny.7 mph35%30.01 "Hg10 mi
1:30 PM84 °FSunny.6 mph35%30.04 "Hg10 mi
1:00 PM82 °FSunny.6 mph37%30.04 "Hg10 mi
12:30 PM82 °FSunny.8 mph40%30.04 "Hg10 mi
12:00 PM81 °FSunny.8 mph42%30.04 "Hg10 mi
11:30 AM79 °FSunny.12 mph45%30.04 "Hg10 mi
11:00 AM77 °FSunny.8 mph51%30.04 "Hg10 mi
10:30 AM75 °FSunny.8 mph54%30.04 "Hg10 mi
10:00 AM75 °FSunny.6 mph50%30.07 "Hg10 mi
9:30 AM73 °FSunny.6 mph53%30.07 "Hg10 mi
9:00 AM72 °FPassing clouds.5 mph57%30.07 "HgN/A
8:30 AM72 °FSunny.3 mph53%30.07 "Hg10 mi
8:00 AM70 °FSunny.3 mph57%30.04 "Hg10 mi
7:30 AM70 °FPassing clouds.3 mph57%30.04 "HgN/A
7:00 AM66 °FSunny.2 mph64%30.04 "Hg10 mi
Weather by CustomWeather, © 2016

See weather overviewHow to use our weather pages